{"data":{"norad_id":68143,"epoch":"2026-09-18T00:57:50.199840Z","epoch_age_seconds":268697,"freshness":"STALE","line1":"1 68143U 26049B   26261.04016435  .00022068  00000+0  68396-3 0  9995","line2":"2 68143  97.2832 281.0225 0002602  95.1743 264.9797 15.33439352 29120","mean_motion":15.33439352,"eccentricity":0.0002602,"inclination_deg":97.2832,"raan_deg":281.0225,"arg_perigee_deg":95.1743,"mean_anomaly_deg":264.9797,"bstar":0.00068396,"rev_number":2912,"period_min":93.906550534383,"perigee_km":463.77924905007,"apogee_km":467.34070895794,"semimajor_km":6843.696979004,"source":"CELESTRAK","updated_at":"2026-09-20T09:00:43.791168Z"}}